CZ-6A DEB, 61151

Orbit data source: Space-Track

CZ-6A DEB, 61151 is space debris in LEO originally from a launch on Tue, 06 Aug 2024 UTC launched from the Taiyaun Space Center, China (TSC). Debris objects in space refer to the collection of defunct objects orbiting the Earth. Examples of debris include non-operational satellites, rocket bodies, and fragments generated from explosions, collisions, or faulty payload assembly.

Loading next visibility...
Identifier
61151, 2024-140QV
Orbit
LEO
Country
Flag of CNCN / PRC
Related business
Manufacturer
SAST
Mission
Spacecraft
Bus & Motor
Unknown
Mass
Unknown
Launch date (UTC)
2024-08-06 (2 years ago)
Launch vehicle
Unknown
Launch site
Taiyaun Space Center, China (TSC)
Object type
Payload
Rocket body
Debris
Shape & HBR
Unknown shape, 0.1 m
Radar Cross Section
Medium (>0.1 m² and <1 m²)

Expand to show TLE details & history
Last TLE update: 15 hours ago

TLE from 15 hours ago
0 CZ-6A DEB
1 61151U 24140QV  26171.35233947  .00011754  00000-0  13111-2 0  9995
2 61151  89.1687 282.3226 0124080 161.6542 198.9219 14.81431379 98322
Epoch: 2026-06-20T08:27Z
TLE epoch observation values (Epoch: 2026-06-20T08:27:22.130Z)
Latitude
-0.00004°
Longitude
-113.0878°
Altitude
710.279 km
Speed
7.456 km/s
True Right ascension
18h 49m 17s
True Declination
0° 00' 00"
Sunlit
Object was in full shadow at epoch
Visualization orbit readout
Latitude
Unknown
Longitude
Unknown
Altitude
Unknown
Speed
Unknown
Apparent Right ascension
Unknown
Apparent Declination
Unknown
Sunlit
N/A
Visualization observer readout
Local Sidereal Time
10:20:26
Azimuth
Unknown
Elevation
Unknown
Doppler factor
Unknown
Orbital elements
Apogee altitude
708.525 km
Perigee altitude
534.818 km
Semi-major axis
6,999.809 km
Eccentricity
0.01241
Inclination
89.1687°
RAAN
282.3226°
Arg. of periapsis
161.6542°
True anomaly
198.4675°
Mean anomaly
198.9219°
Eccentric anomaly
198.69404°
Mean motion
3.70607 °/min
Orbital period
97.14 mins
BSTAR
0.0013111
Loading maneuver chart data...
Computing Atmospheric mass density...
Loading historical data...
Loading historical data...
Loading historical data...
Loading historical data...
Loading historical data...
Loading historical data...
Loading historical data...

Documentation

Showing up to 5 results
|